Regional Weather Roundup
Issued by NWS

Home | Current Version | Previous Version | Graphics & Text | Print | Product List | Glossary On
Versions: 1 2 3 4 5 6 7 8 9 10 11 12 13 14 15 16 17 18 19 20 21 22 23 24 25 26 27 28 29 30 31 32 33 34 35 36 37 38 39 40 41 42 43 44 45 46 47 48 49 50
000
ASUS44 KMEG 090500
RWRTN
TENNESSEE HOURLY STATE WEATHER ROUNDUP
NATIONAL WEATHER SERVICE MEMPHIS TN
1100 PM CST THU DEC 08 2016

TNZ002-004-019-021-049-052-054-088>092-090600-
WEST TENNESSEE

CITY           SKY/WX    TMP DP  RH WIND       PRES   REMARKS
MEMPHIS INTL   PTCLDY    30  17  58 N9        30.57R WCI  22
NWS MEMPHIS      N/A     27 N/A N/A MISG        N/A
JACKSON        CLEAR     28  18  66 NW7       30.57R WCI  21
DYERSBURG      CLEAR     27  18  69 N5        30.58R WCI  21
UNION CITY     CLEAR     25  18  74 N6        30.57R WCI  18
PARIS          CLEAR     21  12  68 N6        30.55R WCI  14
LEXINGTON      CLEAR     27  12  54 NW5       30.53S WCI  21
$$

TNZ008-025-027-028-033-062-065-066-090600-
NORTH MIDDLE TENNESSEE

CITY           SKY/WX    TMP DP  RH WIND       PRES   REMARKS
NASHVILLE      CLEAR     27  15  61 N10G17    30.53R WCI  17
CLARKSVILLE    CLEAR     23  14  68 NW6       30.54R WCI  16
SMYRNA         CLEAR     27  17  66 N13       30.53R WCI  16
CROSSVILLE     CLEAR     22  13  68 NW7       30.40S WCI  13
$$

TNZ061-075-076-078-094-096-097-090600-
SOUTH MIDDLE TENNESSEE

CITY           SKY/WX    TMP DP  RH WIND       PRES   REMARKS
TULLAHOMA      CLEAR     25  12  58 N10       30.46S WCI  15
WINCHESTER     CLEAR     27  16  63 N3        30.47S
MCMINNVILLE    CLEAR     25  16  68 N5          N/A  WCI  19
COLUMBIA       CLEAR     27  16  63 CALM      30.50R
SHELBYVILLE    CLEAR     27  18  69 N8        30.50R WCI  18
$$

TNZ017-018-042-046-047-090600-
NORTHEAST TENNESSEE

CITY           SKY/WX    TMP DP  RH WIND       PRES   REMARKS
TRI CITIES     PTCLDY    28  13  53 NW9       30.34R WCI  19
$$

TNZ012-013-036-069-073-074-090600-
CENTRAL EAST TENNESSEE

CITY           SKY/WX    TMP DP  RH WIND       PRES   REMARKS
KNOXVILLE      PTCLDY    30  18  60 NW3       30.40R
OAK RIDGE      CLEAR     30  14  51 CALM      30.43R
GATLINBURG     CLEAR     28  16  59 NW6       30.39F WCI  22
$$

TNZ083-085-099-090600-
SOUTHEAST TENNESSEE

CITY           SKY/WX    TMP DP  RH WIND       PRES   REMARKS
CHATTANOOGA    PTCLDY    31  15  52 N7G18     30.46R WCI  24
$$

SKY/WX REPORTED AS FAIR MEANS FEW OR NO CLOUDS BELOW
12 THOUSAND FEET.





USA.gov is the U.S. government's official web portal to all federal, state and local government web resources and services.